Location: Unspecified
(0.0000°N, 0.0000°E)
Time: 17:55:47
(UTC+00:00)

Transit 2A - Visible Passes

Search period start: 18 January 2020 00:00
Search period end: 28 January 2020 00:00
Orbit: 601 x 957 km, 66.7° (Epoch: 17 January)

Date Brightness Start Highest point End Pass type
(mag) Time Alt. Az. Time Alt. Az. Time Alt. Az.
18 Jan 5.6 19:54:14 10° SSW 19:59:24 87° ESE 19:59:27 87° E visible
19 Jan 6.1 19:20:19 10° S 19:25:18 49° ESE 19:27:01 33° ENE visible
20 Jan 6.8 18:46:48 10° S 18:51:09 28° ESE 18:54:38 13° ENE visible
20 Jan 8.3 20:31:15 10° WSW 20:33:57 15° WNW 20:35:11 13° NW visible
21 Jan 7.7 19:55:49 10° SW 19:59:56 26° WNW 20:02:52 14° NNW visible
22 Jan 6.8 19:21:05 10° SW 19:25:55 45° WNW 19:30:19 10° N visible
23 Jan 5.9 18:46:46 10° SSW 18:51:52 83° WNW 18:56:28 10° NNE visible
24 Jan 8.6 05:38:00 10° NNE 05:42:00 20° ENE 05:46:13 10° ESE visible
25 Jan 9.0 05:06:00 10° NE 05:07:58 12° ENE 05:09:58 10° E visible
25 Jan 8.5 19:24:19 10° W 19:26:25 13° WNW 19:28:27 10° NW visible
26 Jan 8.2 18:48:33 10° WSW 18:52:23 23° WNW 18:55:59 10° NNW visible
27 Jan 6.9 05:37:06 10° N 05:42:34 61° ENE 05:48:33 10° SSE visible
